Time,TemperatureF,DewpointF,PressureIn,WindDirection,WindDirectionDegrees,WindSpeedMPH,WindSpeedGustMPH,Humidity,HourlyPrecipIn,Conditions,Clouds,dailyrainin,SoftwareType,DateUTC
2013-03-18 00:07:00,39.4,28.6,29.35,NNW,345,0.0,0.0,65,0.08,,,0.00,VWS V14.01,2013-03-18 04:07:00,
2013-03-18 00:22:00,39.6,28.8,29.35,NNW,345,0.0,0.0,65,0.08,,,0.00,VWS V14.01,2013-03-18 04:22:00,
2013-03-18 00:37:00,39.4,29.0,29.35,NNW,345,0.0,0.0,66,0.12,,,0.04,VWS V14.01,2013-03-18 04:37:00,
2013-03-18 00:52:00,39.4,29.0,29.35,NNW,345,0.0,0.0,66,0.04,,,0.04,VWS V14.01,2013-03-18 04:52:00,
2013-03-18 01:06:00,39.9,29.9,29.32,NNW,345,0.0,0.0,67,0.04,,,0.04,VWS V14.01,2013-03-18 05:06:00,
2013-03-18 01:22:00,40.5,30.8,29.32,NNW,345,0.0,0.0,68,0.04,,,0.04,VWS V14.01,2013-03-18 05:22:00,
2013-03-18 01:37:00,41.2,31.8,29.32,NNW,346,0.0,0.0,69,0.04,,,0.04,VWS V14.01,2013-03-18 05:37:00,
2013-03-18 02:06:00,42.8,33.7,29.32,WNW,292,0.0,0.0,70,0.00,,,0.04,VWS V14.01,2013-03-18 06:06:00,
2013-03-18 02:37:00,43.2,34.0,29.32,West,278,0.0,0.0,70,0.04,,,0.08,VWS V14.01,2013-03-18 06:37:00,
2013-03-18 02:52:00,43.5,34.8,29.32,WNW,295,0.0,0.0,71,0.04,,,0.08,VWS V14.01,2013-03-18 06:52:00,
2013-03-18 03:07:00,43.9,34.4,29.32,South,177,0.0,5.8,69,0.04,,,0.08,VWS V14.01,2013-03-18 07:07:00,
2013-03-18 03:22:00,44.2,23.2,29.32,SSW,199,0.0,4.9,43,0.04,,,0.08,VWS V14.01,2013-03-18 07:22:00,
2013-03-18 03:37:00,45.1,21.7,29.32,SW,224,0.0,3.6,39,0.00,,,0.08,VWS V14.01,2013-03-18 07:37:00,
2013-03-18 03:52:00,45.3,20.6,29.32,SE,131,0.0,7.2,37,0.00,,,0.08,VWS V14.01,2013-03-18 07:52:00,
2013-03-18 04:07:00,45.3,18.6,29.32,SW,235,0.0,3.6,34,0.00,,,0.08,VWS V14.01,2013-03-18 08:07:00,
2013-03-18 07:51:00,44.4,14.9,29.26,WNW,302,0.0,8.1,30,0.00,,,0.08,VWS V14.01,2013-03-18 11:51:00,
2013-03-18 08:06:00,44.1,14.6,29.26,North,349,0.0,5.8,30,0.00,,,0.08,VWS V14.01,2013-03-18 12:06:00,
2013-03-18 08:22:00,44.2,14.8,29.26,North,4,0.0,0.0,30,0.00,,,0.08,VWS V14.01,2013-03-18 12:22:00,
2013-03-18 08:36:00,45.0,14.6,29.26,SSW,207,6.3,6.3,29,0.00,,,0.08,VWS V14.01,2013-03-18 12:36:00,
2013-03-18 08:52:00,45.7,14.5,29.26,ENE,64,0.0,6.3,28,0.00,,,0.08,VWS V14.01,2013-03-18 12:52:00,
2013-03-18 09:07:00,45.9,14.6,29.23,SSE,158,3.1,11.9,28,0.00,,,0.08,VWS V14.01,2013-03-18 13:07:00,
2013-03-18 09:21:00,46.2,14.9,29.23,SSW,206,5.4,8.3,28,0.00,,,0.08,VWS V14.01,2013-03-18 13:21:00,
2013-03-18 09:36:00,46.6,14.4,29.23,SSE,151,4.9,8.1,27,0.00,,,0.08,VWS V14.01,2013-03-18 13:36:00,
2013-03-18 09:51:00,46.4,14.2,29.23,SSE,149,10.1,16.3,27,0.00,,,0.08,VWS V14.01,2013-03-18 13:51:00,
2013-03-18 10:07:00,46.4,14.2,29.23,SE,137,3.1,16.8,27,0.00,,,0.08,VWS V14.01,2013-03-18 14:07:00,
2013-03-18 10:21:00,46.4,14.2,29.23,SSE,152,7.6,10.1,27,0.00,,,0.08,VWS V14.01,2013-03-18 14:21:00,
2013-03-18 10:36:00,46.4,14.2,29.23,South,178,6.3,15.9,27,0.00,,,0.08,VWS V14.01,2013-03-18 14:36:00,
2013-03-18 10:52:00,46.6,14.4,29.21,South,187,8.7,13.2,27,0.00,,,0.08,VWS V14.01,2013-03-18 14:52:00,
2013-03-18 11:06:00,46.9,14.7,29.21,SSE,150,11.0,11.9,27,0.00,,,0.08,VWS V14.01,2013-03-18 15:06:00,
2013-03-18 11:21:00,47.5,15.2,29.23,South,170,3.6,11.0,27,0.00,,,0.08,VWS V14.01,2013-03-18 15:21:00,
2013-03-18 11:37:00,47.5,15.2,29.26,South,180,3.6,8.1,27,0.00,,,0.08,VWS V14.01,2013-03-18 15:37:00,
2013-03-18 11:51:00,47.1,14.9,29.26,South,182,4.0,6.3,27,0.00,,,0.08,VWS V14.01,2013-03-18 15:51:00,
2013-03-18 12:06:00,47.1,14.9,29.29,South,169,4.0,5.8,27,0.00,,,0.08,VWS V14.01,2013-03-18 16:06:00,
2013-03-18 12:21:00,46.9,14.7,29.29,West,261,0.0,5.8,27,0.00,,,0.08,VWS V14.01,2013-03-18 16:21:00,
2013-03-18 12:37:00,46.9,14.7,29.26,South,189,3.1,12.3,27,0.00,,,0.08,VWS V14.01,2013-03-18 16:37:00,
2013-03-18 12:51:00,46.9,14.7,29.26,SE,124,3.6,10.5,27,0.00,,,0.08,VWS V14.01,2013-03-18 16:51:00,
2013-03-18 13:06:00,46.9,14.7,29.26,SSE,165,6.3,8.7,27,0.00,,,0.08,VWS V14.01,2013-03-18 17:06:00,
2013-03-18 13:21:00,46.4,14.2,29.26,ENE,72,5.4,11.0,27,0.00,,,0.08,VWS V14.01,2013-03-18 17:21:00,
2013-03-18 13:36:00,45.9,14.6,29.26,South,180,3.1,13.2,28,0.00,,,0.08,VWS V14.01,2013-03-18 17:36:00,
2013-03-18 13:51:00,45.5,15.1,29.26,South,190,2.7,12.3,29,0.00,,,0.08,VWS V14.01,2013-03-18 17:51:00,
2013-03-18 14:07:00,44.8,15.3,29.26,SSW,198,5.4,8.7,30,0.00,,,0.08,VWS V14.01,2013-03-18 18:07:00,
2013-03-18 14:21:00,44.6,16.6,29.26,South,182,5.8,9.6,32,0.00,,,0.08,VWS V14.01,2013-03-18 18:21:00,
2013-03-18 14:36:00,45.1,17.1,29.26,SSE,158,3.1,8.1,32,0.00,,,0.08,VWS V14.01,2013-03-18 18:36:00,
2013-03-18 14:51:00,45.5,17.4,29.26,South,171,4.0,8.1,32,0.00,,,0.08,VWS V14.01,2013-03-18 18:51:00,
2013-03-18 15:06:00,45.3,17.2,29.23,SSW,193,8.7,8.7,32,0.00,,,0.08,VWS V14.01,2013-03-18 19:06:00,
2013-03-18 15:22:00,45.5,18.8,29.23,SSW,195,3.6,8.7,34,0.00,,,0.08,VWS V14.01,2013-03-18 19:22:00,
2013-03-18 15:36:00,45.1,18.5,29.23,South,173,6.3,8.3,34,0.00,,,0.08,VWS V14.01,2013-03-18 19:36:00,
2013-03-18 15:52:00,45.1,20.4,29.21,ESE,105,3.1,8.1,37,0.00,,,0.08,VWS V14.01,2013-03-18 19:52:00,
2013-03-18 16:07:00,45.1,20.4,29.21,ESE,118,2.7,7.2,37,0.00,,,0.08,VWS V14.01,2013-03-18 20:07:00,
2013-03-18 16:22:00,45.3,20.6,29.21,WSW,249,0.0,6.3,37,0.00,,,0.08,VWS V14.01,2013-03-18 20:22:00,
2013-03-18 16:36:00,45.5,21.4,29.18,SSE,161,0.0,6.3,38,0.00,,,0.08,VWS V14.01,2013-03-18 20:36:00,
2013-03-18 16:52:00,45.5,21.4,29.18,SSE,150,0.0,5.4,38,0.04,,,0.12,VWS V14.01,2013-03-18 20:52:00,
2013-03-18 17:07:00,45.5,22.6,29.15,SW,221,2.7,6.7,40,0.04,,,0.12,VWS V14.01,2013-03-18 21:07:00,
2013-03-18 17:21:00,45.9,22.3,29.12,South,172,5.4,6.3,39,0.04,,,0.12,VWS V14.01,2013-03-18 21:21:00,
2013-03-18 17:37:00,46.2,22.0,29.12,SE,136,0.0,5.8,38,0.04,,,0.12,VWS V14.01,2013-03-18 21:37:00,
2013-03-18 17:51:00,46.8,21.9,29.12,SSW,193,2.7,2.7,37,0.04,,,0.12,VWS V14.01,2013-03-18 21:51:00,
2013-03-18 18:06:00,46.9,22.0,29.12,ESE,117,4.0,6.3,37,0.00,,,0.12,VWS V14.01,2013-03-18 22:06:00,
2013-03-18 18:21:00,47.1,18.8,29.09,NE,51,0.0,7.6,32,0.00,,,0.12,VWS V14.01,2013-03-18 22:21:00,
2013-03-18 18:37:00,47.1,20.2,29.09,WSW,238,0.0,3.6,34,0.00,,,0.12,VWS V14.01,2013-03-18 22:37:00,
2013-03-18 18:52:00,46.9,21.4,29.09,West,276,3.6,3.6,36,0.00,,,0.12,VWS V14.01,2013-03-18 22:52:00,
2013-03-18 19:06:00,48.0,23.0,29.06,SSE,162,0.0,3.6,37,0.00,,,0.12,VWS V14.01,2013-03-18 23:06:00,
2013-03-18 19:22:00,48.6,22.2,29.06,NW,310,0.0,0.0,35,0.00,,,0.12,VWS V14.01,2013-03-18 23:22:00,
2013-03-18 19:37:00,47.3,22.4,29.09,NW,313,0.0,0.0,37,0.00,,,0.12,VWS V14.01,2013-03-18 23:37:00,
2013-03-18 19:51:00,46.9,22.0,29.09,NW,313,0.0,0.0,37,0.00,,,0.12,VWS V14.01,2013-03-18 23:51:00,
2013-03-18 20:06:00,46.8,22.5,29.09,NW,313,0.0,0.0,38,0.00,,,0.12,VWS V14.01,2013-03-19 00:06:00,
2013-03-18 20:22:00,46.8,22.5,29.09,NW,313,0.0,0.0,38,0.00,,,0.12,VWS V14.01,2013-03-19 00:22:00,
2013-03-18 20:52:00,47.8,24.1,29.09,South,178,0.0,0.0,39,0.00,,,0.12,VWS V14.01,2013-03-19 00:52:00,
2013-03-18 21:07:00,48.2,23.8,29.09,SSW,198,0.0,0.0,38,0.00,,,0.12,VWS V14.01,2013-03-19 01:07:00,
2013-03-18 21:22:00,47.8,22.9,29.09,SSW,198,0.0,0.0,37,0.00,,,0.12,VWS V14.01,2013-03-19 01:22:00,
2013-03-18 21:36:00,47.5,22.5,29.09,SSW,198,0.0,0.0,37,0.00,,,0.12,VWS V14.01,2013-03-19 01:36:00,
2013-03-18 21:51:00,47.7,23.3,29.09,SSW,198,0.0,0.0,38,0.00,,,0.12,VWS V14.01,2013-03-19 01:51:00,
2013-03-18 22:06:00,48.0,23.0,29.09,SSW,201,0.0,0.0,37,0.00,,,0.12,VWS V14.01,2013-03-19 02:06:00,
2013-03-18 22:21:00,48.0,23.0,29.09,SSW,201,0.0,0.0,37,0.00,,,0.12,VWS V14.01,2013-03-19 02:21:00,
2013-03-18 22:37:00,47.3,22.4,29.09,SSW,201,0.0,0.0,37,0.00,,,0.12,VWS V14.01,2013-03-19 02:37:00,
2013-03-18 22:52:00,47.3,23.0,29.09,SSW,201,0.0,0.0,38,0.00,,,0.12,VWS V14.01,2013-03-19 02:52:00,
2013-03-18 23:07:00,47.3,23.0,29.09,SSW,201,0.0,0.0,38,0.00,,,0.12,VWS V14.01,2013-03-19 03:07:00,
2013-03-18 23:21:00,47.1,22.8,29.09,SSW,201,0.0,0.0,38,0.00,,,0.12,VWS V14.01,2013-03-19 03:21:00,
2013-03-18 23:36:00,47.3,23.6,29.09,SSW,201,0.0,0.0,39,0.00,,,0.12,VWS V14.01,2013-03-19 03:36:00,
2013-03-18 23:51:00,47.3,23.6,29.09,SSW,201,0.0,0.0,39,0.00,,,0.00,VWS V14.01,2013-03-19 03:51:00,